EW0275 Weather Reports


time (UTC)temp
C
wind
direction
speed
KPH
gust
KPH
rain 1hr
cm
rain 24hr
cm
rain mn
cm
humidity
%
barometer
mb
20260504030901 12 243 3.2 9.7 0.00 0.00 0.00 55 1013.5
20260504030601 12 236 4.8 11.3 0.00 0.00 0.00 54 1013.5
20260504030001 12 238 3.2 11.3 0.00 0.00 0.00 55 1013.5
20260504025701 12 254 1.6 11.3 0.00 0.00 0.00 54 1013.5
20260504025401 11 258 3.2 6.4 0.00 0.00 0.00 55 1013.5
20260504025101 11 240 3.2 12.9 0.00 0.00 0.00 55 1013.6
20260504024502 12 240 4.8 12.9 0.00 0.00 0.00 54 1013.7
20260504024201 12 251 4.8 14.5 0.00 0.00 0.00 55 1013.7
20260504023901 12 253 4.8 14.5 0.00 0.00 0.00 55 1013.6
20260504023601 12 255 4.8 14.5 0.00 0.00 0.00 54 1013.7
20260504023301 12 263 6.4 14.5 0.00 0.00 0.00 54 1013.8
20260504022701 12 269 8.0 17.7 0.00 0.00 0.00 54 1013.8
20260504022101 11 268 6.4 14.5 0.00 0.00 0.00 54 1013.8
20260504021802 11 264 6.4 14.5 0.00 0.00 0.00 55 1013.7
20260504021502 12 266 8.0 14.5 0.00 0.00 0.00 54 1013.8
20260504021201 12 264 9.7 16.1 0.00 0.00 0.00 54 1013.7
20260504020901 11 265 9.7 20.9 0.00 0.00 0.00 54 1013.7
20260504020302 11 260 11.3 22.5 0.00 0.00 0.00 54 1013.8
20260504020002 11 256 12.9 22.5 0.00 0.00 0.00 55 1013.8
20260504015701 11 254 12.9 22.5 0.00 0.00 0.00 56 1013.8
20260504015401 11 250 12.9 22.5 0.00 0.00 0.00 57 1013.8
20260504015101 10 253 11.3 22.5 0.00 0.00 0.00 59 1013.7
20260504014801 10 252 9.7 20.9 0.00 0.00 0.00 63 1013.7
20260504014502 9 253 6.4 20.9 0.00 0.00 0.00 67 1013.7
20260504013901 8 247 1.6 17.7 0.00 0.00 0.00 71 1013.4
20260504013601 8 0 0.0 3.2 0.00 0.00 0.00 70 1013.3
20260504013301 8 0 0.0 0.0 0.00 0.00 0.00 70 1013.2
20260504012401 8 0 0.0 3.2 0.00 0.00 0.00 68 1013.2
20260504012101 9 0 0.0 3.2 0.00 0.00 0.00 67 1013.2
20260504011802 9 0 0.0 3.2 0.00 0.00 0.00 68 1013.2
20260504011501 9 139 1.6 3.2 0.00 0.00 0.00 67 1013.2
20260504011201 9 0 0.0 3.2 0.00 0.00 0.00 66 1013.3
20260504010902 10 0 0.0 3.2 0.00 0.00 0.00 65 1013.3
20260504010601 10 0 0.0 3.2 0.00 0.00 0.00 64 1013.3
20260504010301 10 0 0.0 3.2 0.00 0.00 0.00 66 1013.3
20260504010002 10 152 1.6 3.2 0.00 0.00 0.00 67 1013.3
20260504005701 10 157 1.6 4.8 0.00 0.00 0.00 64 1013.3
20260504005101 10 0 0.0 4.8 0.00 0.00 0.00 60 1013.2
20260504004802 11 0 0.0 3.2 0.00 0.00 0.00 59 1013.2
20260504003902 11 0 0.0 3.2 0.00 0.00 0.00 55 1013.2
20260504003601 12 188 1.6 6.4 0.00 0.00 0.00 52 1013.2
20260504003301 12 198 1.6 6.4 0.00 0.00 0.00 50 1013.1
20260504003002 12 202 1.6 6.4 0.00 0.00 0.00 46 1013.1
20260504002401 12 0 0.0 3.2 0.00 0.00 0.00 47 1013.1
20260504002102 12 0 0.0 3.2 0.00 0.00 0.00 46 1013.1
20260504001801 13 240 1.6 4.8 0.00 0.00 0.00 46 1013.2
20260504001502 13 218 3.2 6.4 0.00 0.00 0.00 47 1013.2
20260504001202 13 224 3.2 6.4 0.00 0.00 0.00 45 1013.2
20260504000901 13 226 3.2 9.7 0.00 0.00 0.00 44 1013.2
20260504000602 13 236 3.2 9.7 0.00 0.00 0.00 44 1013.2
20260503235701 13 253 4.8 12.9 0.00 0.00 0.00 44 1013.1
20260503235101 13 248 8.0 16.1 0.00 0.00 0.00 44 1013.3
20260503234802 13 250 8.0 16.1 0.00 0.00 0.00 43 1013.3
20260503234501 13 256 8.0 16.1 0.00 0.00 0.00 43 1013.3
20260503233901 13 254 9.7 17.7 0.00 0.00 0.00 43 1013.4
20260503233602 13 252 11.3 19.3 0.00 0.00 0.00 42 1013.4
20260503233301 13 255 11.3 19.3 0.00 0.00 0.00 42 1013.5
20260503233002 13 251 9.7 19.3 0.00 0.00 0.00 42 1013.4
20260503232701 13 248 9.7 17.7 0.00 0.00 0.00 42 1013.4
20260503232101 14 250 11.3 27.4 0.00 0.00 0.00 43 1013.5
20260503231802 14 255 12.9 27.4 0.00 0.00 0.00 42 1013.4
20260503231501 14 258 12.9 27.4 0.00 0.00 0.00 42 1013.5
20260503231202 14 258 12.9 25.7 0.00 0.00 0.00 42 1013.5
20260503230901 14 252 11.3 24.1 0.00 0.00 0.00 42 1013.6
20260503230602 14 248 11.3 24.1 0.00 0.00 0.00 43 1013.6
20260503230302 14 257 11.3 22.5 0.00 0.00 0.00 41 1013.7
20260503230002 14 262 11.3 22.5 0.00 0.00 0.00 42 1013.6
20260503225702 14 262 11.3 24.1 0.00 0.00 0.00 41 1013.6
20260503225401 14 259 9.7 24.1 0.00 0.00 0.00 41 1013.6
20260503225102 14 255 9.7 24.1 0.00 0.00 0.00 41 1013.7
20260503224801 14 254 11.3 25.7 0.00 0.00 0.00 42 1013.8
20260503224502 14 256 11.3 25.7 0.00 0.00 0.00 42 1013.7
20260503223901 14 256 12.9 25.7 0.00 0.00 0.00 40 1013.7
20260503223602 14 255 12.9 25.7 0.00 0.00 0.00 41 1013.8
20260503223301 14 248 14.5 25.7 0.00 0.00 0.00 42 1013.8
20260503222701 15 250 16.1 30.6 0.00 0.00 0.00 40 1013.9
20260503222402 15 254 14.5 30.6 0.00 0.00 0.00 40 1013.9
20260503222102 15 255 11.3 30.6 0.00 0.00 0.00 40 1014.0
20260503221802 15 257 11.3 30.6 0.00 0.00 0.00 39 1013.9
20260503221502 15 254 11.3 19.3 0.00 0.00 0.00 40 1013.9
20260503221202 15 253 12.9 20.9 0.00 0.00 0.00 43 1013.9
20260503220902 15 257 12.9 20.9 0.00 0.00 0.00 40 1013.9
20260503220301 15 259 12.9 25.7 0.00 0.00 0.00 39 1013.8
20260503220001 15 258 12.9 25.7 0.00 0.00 0.00 40 1013.9
20260503215702 15 256 12.9 25.7 0.00 0.00 0.00 40 1013.8
20260503215402 15 252 12.9 20.9 0.00 0.00 0.00 40 1013.8
20260503215102 15 255 14.5 32.2 0.00 0.00 0.00 43 1013.9
20260503214502 15 253 14.5 32.2 0.00 0.00 0.00 40 1013.8
20260503214201 15 253 11.3 29.0 0.00 0.00 0.00 41 1013.9
20260503213302 15 246 12.9 24.1 0.00 0.00 0.00 41 1013.9
20260503213002 15 245 14.5 25.7 0.00 0.00 0.00 40 1013.9
20260503212402 15 249 14.5 25.7 0.00 0.00 0.00 40 1013.9
20260503211802 15 248 9.7 27.4 0.00 0.00 0.00 40 1013.9
20260503211502 15 249 9.7 27.4 0.00 0.00 0.00 40 1013.9
20260503211202 15 240 11.3 22.5 0.00 0.00 0.00 40 1013.9
20260503210902 15 248 12.9 25.7 0.00 0.00 0.00 39 1013.9
20260503210603 15 244 12.9 25.7 0.00 0.00 0.00 39 1013.8
20260503210302 15 256 14.5 25.7 0.00 0.00 0.00 40 1013.8
20260503210002 16 256 14.5 25.7 0.00 0.00 0.00 38 1013.9
20260503205402 16 250 16.1 29.0 0.00 0.00 0.00 40 1013.8
20260503205102 15 257 16.1 29.0 0.00 0.00 0.00 41 1013.8
20260503204801 16 266 14.5 29.0 0.00 0.00 0.00 41 1013.8
20260503204502 15 268 12.9 27.4 0.00 0.00 0.00 41 1013.8
20260503204202 15 254 9.7 27.4 0.00 0.00 0.00 41 1013.9
20260503203902 15 246 11.3 29.0 0.00 0.00 0.00 39 1013.9
20260503203602 15 254 12.9 29.0 0.00 0.00 0.00 40 1014.0
20260503203302 15 256 16.1 29.0 0.00 0.00 0.00 41 1013.9
20260503203002 16 263 16.1 29.0 0.00 0.00 0.00 40 1013.9
20260503202702 16 260 14.5 25.7 0.00 0.00 0.00 44 1013.9
20260503202402 16 268 14.5 24.1 0.00 0.00 0.00 39 1014.0
20260503202102 15 261 12.9 29.0 0.00 0.00 0.00 40 1014.0
20260503201802 15 251 11.3 29.0 0.00 0.00 0.00 39 1014.1
20260503201202 15 245 8.0 22.5 0.00 0.00 0.00 40 1014.3
20260503200602 15 247 8.0 19.3 0.00 0.00 0.00 41 1014.2
20260503200302 15 250 11.3 19.3 0.00 0.00 0.00 42 1014.5
20260503195703 15 252 16.1 30.6 0.00 0.00 0.00 41 1014.5
20260503195402 15 251 17.7 33.8 0.00 0.00 0.00 42 1014.6
20260503194802 16 242 14.5 33.8 0.00 0.00 0.00 40 1014.8
20260503193902 15 242 16.1 29.0 0.00 0.00 0.00 38 1014.9
20260503193302 15 265 19.3 32.2 0.00 0.00 0.00 39 1014.9
20260503192703 15 266 17.7 32.2 0.00 0.00 0.00 40 1015.1
20260503192102 15 264 14.5 25.7 0.00 0.00 0.00 39 1015.0
20260503191802 15 267 14.5 25.7 0.00 0.00 0.00 39 1015.1
20260503191502 15 268 12.9 24.1 0.00 0.00 0.00 42 1015.1
20260503191202 15 268 12.9 22.5 0.00 0.00 0.00 38 1015.2
20260503190902 15 270 12.9 25.7 0.00 0.00 0.00 40 1015.2
20260503190602 15 263 12.9 25.7 0.00 0.00 0.00 38 1015.4
20260503190302 15 261 12.9 25.7 0.00 0.00 0.00 40 1015.3
20260503190003 15 255 11.3 22.5 0.00 0.00 0.00 39 1015.3
20260503185703 15 256 11.3 22.5 0.00 0.00 0.00 39 1015.3
20260503185402 15 253 12.9 25.7 0.00 0.00 0.00 41 1015.4
20260503185102 15 249 14.5 25.7 0.00 0.00 0.00 37 1015.4
20260503184802 15 249 12.9 25.7 0.00 0.00 0.00 40 1015.6
20260503184502 15 258 12.9 25.7 0.00 0.00 0.00 39 1015.5
20260503184202 15 266 14.5 27.4 0.00 0.00 0.00 38 1015.5
20260503183902 16 267 16.1 30.6 0.00 0.00 0.00 37 1015.6
20260503183602 15 265 16.1 33.8 0.00 0.00 0.00 39 1015.5
20260503183303 15 260 14.5 33.8 0.00 0.00 0.00 36 1015.7
20260503183002 15 266 14.5 33.8 0.00 0.00 0.00 36 1015.7
20260503182702 15 270 12.9 24.1 0.00 0.00 0.00 36 1015.6
20260503182402 16 271 14.5 24.1 0.00 0.00 0.00 35 1015.7
20260503182102 16 268 14.5 24.1 0.00 0.00 0.00 36 1015.6
20260503181802 16 261 14.5 25.7 0.00 0.00 0.00 36 1015.7
20260503181504 15 253 16.1 30.6 0.00 0.00 0.00 36 1015.8
20260503181202 15 245 16.1 32.2 0.00 0.00 0.00 41 1015.8
20260503180903 15 247 17.7 32.2 0.00 0.00 0.00 38 1015.9
20260503180603 15 250 17.7 32.2 0.00 0.00 0.00 40 1015.9
20260503180302 15 258 17.7 30.6 0.00 0.00 0.00 41 1015.9
20260503180002 15 262 16.1 27.4 0.00 0.00 0.00 39 1016.0
20260503175703 15 266 16.1 27.4 0.00 0.00 0.00 39 1016.2
20260503175103 16 261 14.5 30.6 0.00 0.00 0.00 43 1015.9
20260503174802 16 266 14.5 30.6 0.00 0.00 0.00 39 1016.0
20260503174502 15 268 16.1 30.6 0.00 0.00 0.00 42 1016.0
20260503174202 15 274 14.5 30.6 0.00 0.00 0.00 40 1016.1
20260503173903 15 267 14.5 27.4 0.00 0.00 0.00 44 1016.1
20260503173302 15 248 14.5 22.5 0.00 0.00 0.00 42 1016.2
20260503173002 15 252 14.5 24.1 0.00 0.00 0.00 43 1016.3
20260503172702 15 257 12.9 24.1 0.00 0.00 0.00 42 1016.2
20260503172403 15 267 14.5 25.7 0.00 0.00 0.00 43 1016.3
20260503172103 15 265 12.9 25.7 0.00 0.00 0.00 45 1016.5
20260503171802 14 268 14.5 25.7 0.00 0.00 0.00 42 1016.4
20260503171502 14 266 14.5 24.1 0.00 0.00 0.00 46 1016.4
20260503170903 15 255 14.5 25.7 0.00 0.00 0.00 43 1016.5
20260503170602 15 249 12.9 25.7 0.00 0.00 0.00 42 1016.7
20260503170302 15 249 12.9 24.1 0.00 0.00 0.00 46 1016.7
20260503150903 11 257 14.5 27.4 0.00 0.03 0.00 45 1017.9
20260503150603 11 253 16.1 27.4 0.00 0.03 0.00 48 1018.0
20260503150302 11 251 14.5 29.0 0.00 0.03 0.00 49 1018.0
20260503140303 9 262 9.7 20.9 0.00 0.03 0.00 50 1018.1
20260503130903 6 248 4.8 12.9 0.00 0.03 0.00 68 1018.3
20260503130603 6 256 4.8 12.9 0.00 0.03 0.00 69 1018.3
20260503130303 6 259 6.4 12.9 0.00 0.03 0.00 70 1018.4
20260503110604 0 0 0.0 0.0 0.00 0.03 0.00 93 1017.5
20260503110303 0 0 0.0 0.0 0.00 0.03 0.00 93 1017.5
20260503090300 0 0 0.0 0.0 0.00 0.03 0.00 91 1016.9
20260503081200 1 0 0.0 0.0 0.00 0.03 0.00 90 1016.9
20260503080900 1 0 0.0 0.0 0.00 0.03 0.00 90 1017.0
20260503080300 1 0 0.0 0.0 0.00 0.03 0.00 90 1016.8
20260503072700 2 0 0.0 0.0 0.00 0.03 0.00 88 1016.7
20260503072400 2 0 0.0 0.0 0.00 0.03 0.00 88 1016.7
20260503072100 2 0 0.0 0.0 0.00 0.03 0.00 88 1016.8
20260503071801 2 0 0.0 0.0 0.00 0.03 0.00 88 1016.7
20260503071200 2 0 0.0 0.0 0.00 0.03 0.00 87 1016.7
20260503070901 2 0 0.0 0.0 0.00 0.03 0.00 87 1016.7
20260503070601 2 0 0.0 0.0 0.00 0.03 0.00 87 1016.7
20260503070300 2 0 0.0 0.0 0.00 0.03 0.00 87 1016.7
20260503060301 3 0 0.0 0.0 0.00 0.03 0.00 88 1016.8
20260503054501 3 0 0.0 3.2 0.00 0.03 0.00 88 1016.8
20260503054200 3 0 0.0 3.2 0.00 0.03 0.00 88 1016.8
20260503053900 3 0 0.0 0.0 0.00 0.03 0.00 88 1016.9
20260503053001 3 0 0.0 0.0 0.00 0.03 0.00 88 1017.0
20260503052700 3 0 0.0 0.0 0.00 0.03 0.00 88 1017.0
20260503052400 3 0 0.0 0.0 0.00 0.03 0.00 88 1017.0
20260503052100 3 0 0.0 1.6 0.00 0.03 0.00 88 1017.0
20260503051800 3 0 0.0 1.6 0.00 0.03 0.00 88 1016.9
20260503051500 3 0 0.0 1.6 0.00 0.03 0.00 88 1017.0
20260503051201 3 0 0.0 0.0 0.00 0.03 0.00 88 1017.0
20260503050901 3 0 0.0 0.0 0.00 0.03 0.00 89 1017.0
20260503050601 3 0 0.0 0.0 0.00 0.03 0.00 88 1017.1
20260503050301 3 0 0.0 0.0 0.00 0.03 0.00 89 1017.1
20260503050001 3 0 0.0 0.0 0.00 0.03 0.00 88 1017.1
20260503045401 3 0 0.0 0.0 0.00 0.03 0.00 88 1017.3
20260503045101 3 0 0.0 0.0 0.00 0.03 0.00 88 1017.2
20260503044801 3 0 0.0 0.0 0.00 0.03 0.00 88 1017.3
20260503044500 3 0 0.0 0.0 0.00 0.03 0.00 88 1017.3
20260503044200 3 0 0.0 0.0 0.00 0.03 0.00 88 1017.2
20260503043901 3 0 0.0 0.0 0.00 0.03 0.00 88 1017.3
20260503043601 3 0 0.0 0.0 0.00 0.03 0.00 88 1017.3
20260503043301 3 0 0.0 0.0 0.00 0.03 0.00 88 1017.2
20260503043001 3 0 0.0 0.0 0.00 0.03 0.00 88 1017.1
20260503042702 3 0 0.0 0.0 0.00 0.03 0.00 88 1017.1
20260503042401 3 0 0.0 0.0 0.00 0.03 0.00 87 1017.1
20260503042101 3 0 0.0 0.0 0.00 0.03 0.00 87 1017.1
20260503041502 3 0 0.0 0.0 0.00 0.03 0.00 87 1017.2
20260503041201 3 0 0.0 0.0 0.00 0.03 0.00 87 1017.2
20260503040901 3 0 0.0 0.0 0.00 0.03 0.00 87 1017.2
20260503040601 3 0 0.0 0.0 0.00 0.03 0.00 87 1017.2
20260503040302 3 0 0.0 0.0 0.00 0.03 0.00 87 1017.3
20260503040004 3 0 0.0 0.0 0.00 0.03 0.00 87 1017.3
20260503035701 3 0 0.0 0.0 0.00 0.03 0.03 87 1017.3
20260503035401 3 0 0.0 0.0 0.00 0.03 0.03 86 1017.3
20260503035101 3 0 0.0 0.0 0.00 0.03 0.03 86 1017.3
20260503034801 3 0 0.0 0.0 0.00 0.03 0.03 86 1017.3
20260503034501 3 0 0.0 0.0 0.00 0.03 0.03 86 1017.3
20260503034201 3 0 0.0 0.0 0.00 0.03 0.03 86 1017.3
20260503033901 3 0 0.0 0.0 0.00 0.03 0.03 86 1017.3
20260503033301 3 0 0.0 0.0 0.00 0.03 0.03 85 1017.4
20260503033001 3 0 0.0 0.0 0.00 0.03 0.03 85 1017.4
20260503032701 3 0 0.0 0.0 0.00 0.03 0.03 85 1017.4
20260503032401 3 0 0.0 0.0 0.00 0.03 0.03 85 1017.4
20260503032101 3 0 0.0 0.0 0.00 0.03 0.03 85 1017.4
20260503031801 3 0 0.0 0.0 0.00 0.03 0.03 85 1017.4